| time (UTC) | temp C | wind direction | speed KPH | gust KPH | rain 1hr cm | rain 24hr cm | rain mn cm | humidity % | barometer mb |
| 20260507090100 | 14 | 156 | 3.2 | 11.3 | 0.00 | 0.00 | 0.00 | 35 | 1011.3 |
| 20260507083112 | 14 | 172 | 3.2 | 8.0 | 0.00 | 0.00 | 0.00 | 35 | 1011.1 |
| 20260507080040 | 16 | 171 | 3.2 | 9.7 | 0.00 | 0.00 | 0.00 | 32 | 1011.0 |
| 20260507073111 | 20 | 151 | 3.2 | 8.0 | 0.00 | 0.00 | 0.00 | 29 | 1011.0 |
| 20260507070021 | 18 | 180 | 3.2 | 8.0 | 0.00 | 0.00 | 0.00 | 34 | 1010.9 |
| 20260507063111 | 12 | 180 | 1.6 | 4.8 | 0.00 | 0.03 | 0.00 | 55 | 1010.9 |
| 20260507060123 | 5 | 193 | 1.6 | 6.4 | 0.00 | 0.03 | 0.00 | 76 | 1010.8 |
| 20260507053052 | 3 | 162 | 1.6 | 4.8 | 0.00 | 0.03 | 0.00 | 84 | 1010.8 |
| 20260507050042 | 0 | 135 | 1.6 | 4.8 | 0.00 | 0.03 | 0.00 | 85 | 1010.7 |
| 20260507043032 | 0 | 135 | 1.6 | 3.2 | 0.00 | 0.03 | 0.00 | 84 | 1010.4 |
| 20260507040022 | -1 | 135 | 1.6 | 3.2 | 0.00 | 0.03 | 0.00 | 82 | 1010.3 |
| 20260507033113 | -1 | 135 | 0.0 | 3.2 | 0.00 | 0.03 | 0.00 | 81 | 1010.2 |
| 20260507030104 | -1 | 135 | 1.6 | 3.2 | 0.00 | 0.03 | 0.00 | 80 | 1010.3 |
| 20260507023055 | -1 | 135 | 0.0 | 4.8 | 0.00 | 0.03 | 0.00 | 80 | 1010.1 |
| 20260507020046 | -1 | 135 | 1.6 | 4.8 | 0.00 | 0.03 | 0.00 | 79 | 1010.1 |
| 20260507013039 | -1 | 135 | 1.6 | 3.2 | 0.00 | 0.03 | 0.00 | 77 | 1010.1 |
| 20260507010028 | -1 | 135 | 1.6 | 3.2 | 0.00 | 0.03 | 0.00 | 74 | 1010.1 |
| 20260507003037 | 0 | 135 | 1.6 | 3.2 | 0.00 | 0.03 | 0.00 | 73 | 1010.1 |
| 20260507000109 | 0 | 135 | 1.6 | 4.8 | 0.00 | 0.03 | 0.00 | 72 | 1010.1 |
| 20260506233058 | 0 | 135 | 0.0 | 3.2 | 0.00 | 0.03 | 0.00 | 70 | 1009.9 |
| 20260506230050 | 1 | 135 | 0.0 | 3.2 | 0.00 | 0.03 | 0.00 | 68 | 1009.8 |
| 20260506223038 | 2 | 135 | 1.6 | 3.2 | 0.00 | 0.03 | 0.00 | 65 | 1009.8 |
| 20260506220029 | 2 | 135 | 1.6 | 3.2 | 0.00 | 0.03 | 0.00 | 62 | 1009.7 |
| 20260506213021 | 3 | 135 | 1.6 | 4.8 | 0.00 | 0.03 | 0.03 | 60 | 1009.7 |
| 20260506210110 | 3 | 135 | 1.6 | 4.8 | 0.00 | 0.03 | 0.03 | 56 | 1009.6 |
| 20260506203144 | 4 | 135 | 1.6 | 3.2 | 0.00 | 0.03 | 0.03 | 52 | 1009.5 |
| 20260506200111 | 5 | 135 | 1.6 | 4.8 | 0.00 | 0.03 | 0.03 | 50 | 1009.4 |
| 20260506193044 | 6 | 157 | 0.0 | 4.8 | 0.00 | 0.03 | 0.03 | 48 | 1009.2 |
| 20260506190052 | 8 | 180 | 0.0 | 3.2 | 0.00 | 0.03 | 0.03 | 38 | 1009.1 |
| 20260506183022 | 9 | 180 | 1.6 | 9.7 | 0.00 | 0.03 | 0.03 | 34 | 1008.9 |
| 20260506180112 | 10 | 201 | 1.6 | 12.9 | 0.00 | 0.03 | 0.03 | 32 | 1008.8 |
| 20260506173104 | 11 | 181 | 3.2 | 12.9 | 0.00 | 0.03 | 0.03 | 31 | 1008.8 |
| 20260506170053 | 12 | 194 | 4.8 | 14.5 | 0.00 | 0.03 | 0.03 | 30 | 1008.8 |
| 20260506163124 | 13 | 181 | 6.4 | 17.7 | 0.00 | 0.03 | 0.03 | 29 | 1008.7 |
| 20260506160034 | 13 | 189 | 6.4 | 19.3 | 0.00 | 0.03 | 0.03 | 28 | 1008.6 |
| 20260506153024 | 14 | 188 | 6.4 | 16.1 | 0.00 | 0.03 | 0.03 | 27 | 1008.5 |
| 20260506150114 | 14 | 176 | 6.4 | 14.5 | 0.00 | 0.03 | 0.03 | 27 | 1008.6 |
| 20260506143104 | 14 | 195 | 6.4 | 16.1 | 0.00 | 0.03 | 0.03 | 27 | 1008.6 |
| 20260506140136 | 14 | 193 | 4.8 | 16.1 | 0.00 | 0.03 | 0.03 | 28 | 1008.5 |
| 20260506133046 | 14 | 112 | 6.4 | 20.9 | 0.00 | 0.03 | 0.03 | 28 | 1008.5 |
| 20260506130036 | 14 | 183 | 6.4 | 16.1 | 0.00 | 0.03 | 0.03 | 29 | 1008.5 |
| 20260506123048 | 14 | 161 | 6.4 | 24.1 | 0.00 | 0.03 | 0.03 | 28 | 1008.7 |
| 20260506120040 | 15 | 178 | 6.4 | 20.9 | 0.00 | 0.03 | 0.03 | 29 | 1008.8 |
| 20260506113109 | 14 | 227 | 3.2 | 9.7 | 0.00 | 0.03 | 0.03 | 28 | 1008.8 |
| 20260506110059 | 14 | 256 | 4.8 | 14.5 | 0.00 | 0.03 | 0.03 | 27 | 1009.0 |
| 20260506103050 | 14 | 190 | 3.2 | 9.7 | 0.00 | 0.03 | 0.03 | 29 | 1009.3 |
| 20260506100040 | 13 | 206 | 4.8 | 11.3 | 0.00 | 0.03 | 0.03 | 28 | 1009.3 |
| 20260506093031 | 12 | 313 | 4.8 | 12.9 | 0.00 | 0.03 | 0.03 | 28 | 1009.6 |